TimeCST,TemperatureF,Dew PointF,Humidity,Sea Level PressureIn,VisibilityMPH,Wind Direction,Wind SpeedMPH,Gust SpeedMPH,PrecipitationIn,Events,Conditions,WindDirDegrees,DateUTC
12:15 AM,35.6,28.4,75,29.66,10.0,South,11.5,-,N/A,,Clear,190,2014-01-12 06:15:00
12:35 AM,35.6,26.6,70,29.64,10.0,South,12.7,-,N/A,,Clear,190,2014-01-12 06:35:00
12:55 AM,35.6,26.6,70,29.62,10.0,SSW,12.7,-,N/A,,Clear,200,2014-01-12 06:55:00
1:15 AM,35.6,26.6,70,29.61,10.0,SSW,13.8,-,N/A,,Clear,200,2014-01-12 07:15:00
1:35 AM,35.6,26.6,70,29.60,10.0,South,13.8,-,N/A,,Clear,190,2014-01-12 07:35:00
1:55 AM,35.6,26.6,70,29.58,10.0,South,13.8,-,N/A,,Clear,190,2014-01-12 07:55:00
2:15 AM,35.6,26.6,70,29.58,10.0,SSW,13.8,-,N/A,,Clear,200,2014-01-12 08:15:00
2:35 AM,35.6,26.6,70,29.57,10.0,South,12.7,-,N/A,,Clear,190,2014-01-12 08:35:00
2:55 AM,35.6,26.6,70,29.58,10.0,SSW,11.5,-,N/A,,Clear,200,2014-01-12 08:55:00
3:15 AM,35.6,26.6,70,29.56,10.0,SSW,12.7,-,N/A,,Clear,200,2014-01-12 09:15:00
3:35 AM,35.6,26.6,70,29.57,10.0,SSW,12.7,-,N/A,,Clear,210,2014-01-12 09:35:00
3:55 AM,35.6,26.6,70,29.56,10.0,SSW,11.5,-,N/A,,Clear,200,2014-01-12 09:55:00
4:15 AM,35.6,26.6,70,29.54,10.0,South,13.8,-,N/A,,Clear,190,2014-01-12 10:15:00
4:35 AM,33.8,26.6,75,29.53,10.0,South,15.0,-,N/A,,Clear,190,2014-01-12 10:35:00
4:55 AM,35.6,26.6,70,29.54,10.0,South,12.7,-,N/A,,Clear,190,2014-01-12 10:55:00
5:15 AM,33.8,26.6,75,29.53,10.0,SSW,10.4,-,N/A,,Clear,200,2014-01-12 11:15:00
5:35 AM,33.8,26.6,75,29.53,10.0,SSW,11.5,-,N/A,,Clear,200,2014-01-12 11:35:00
5:55 AM,33.8,26.6,75,29.52,10.0,SSW,9.2,-,N/A,,Clear,200,2014-01-12 11:55:00
6:15 AM,35.6,26.6,70,29.52,10.0,SSW,10.4,-,N/A,,Clear,200,2014-01-12 12:15:00
6:35 AM,35.6,26.6,70,29.51,10.0,SSW,10.4,-,N/A,,Clear,200,2014-01-12 12:35:00
6:55 AM,33.8,26.6,75,29.51,10.0,South,10.4,-,N/A,,Clear,190,2014-01-12 12:55:00
7:15 AM,33.8,26.6,75,29.51,10.0,SSW,10.4,-,N/A,,Clear,200,2014-01-12 13:15:00
7:35 AM,33.8,26.6,75,29.51,10.0,SSW,9.2,-,N/A,,Clear,210,2014-01-12 13:35:00
7:55 AM,33.8,26.6,75,29.50,10.0,South,9.2,-,N/A,,Clear,190,2014-01-12 13:55:00
8:15 AM,32.0,26.6,80,29.50,10.0,SSW,5.8,-,N/A,,Clear,200,2014-01-12 14:15:00
8:35 AM,32.0,26.6,80,29.50,10.0,SSW,8.1,-,N/A,,Clear,210,2014-01-12 14:35:00
8:55 AM,32.0,26.6,80,29.50,10.0,SSW,6.9,-,N/A,,Clear,210,2014-01-12 14:55:00
9:15 AM,33.8,26.6,75,29.51,10.0,SSW,10.4,-,N/A,,Clear,210,2014-01-12 15:15:00
9:35 AM,35.6,26.6,70,29.51,10.0,SSW,9.2,-,N/A,,Clear,200,2014-01-12 15:35:00
9:55 AM,39.2,28.4,65,29.51,10.0,SW,10.4,-,N/A,,Clear,220,2014-01-12 15:55:00
10:15 AM,41.0,28.4,61,29.51,10.0,WSW,9.2,-,N/A,,Clear,240,2014-01-12 16:15:00
10:35 AM,44.6,28.4,53,29.52,10.0,WSW,9.2,-,N/A,,Clear,250,2014-01-12 16:35:00
10:55 AM,48.2,30.2,50,29.52,10.0,SW,6.9,-,N/A,,Clear,220,2014-01-12 16:55:00
11:15 AM,50.0,32.0,50,29.51,10.0,West,8.1,-,N/A,,Clear,270,2014-01-12 17:15:00
11:35 AM,53.6,32.0,44,29.50,10.0,WNW,8.1,-,N/A,,Clear,290,2014-01-12 17:35:00
11:55 AM,53.6,30.2,41,29.49,10.0,NW,9.2,-,N/A,,Clear,310,2014-01-12 17:55:00
12:15 PM,50.0,30.2,47,29.48,10.0,WNW,8.1,-,N/A,,Clear,300,2014-01-12 18:15:00
12:35 PM,50.0,32.0,50,29.48,10.0,NW,8.1,-,N/A,,Clear,310,2014-01-12 18:35:00
12:55 PM,50.0,32.0,50,29.47,10.0,NNW,9.2,-,N/A,,Clear,330,2014-01-12 18:55:00
1:15 PM,50.0,32.0,50,29.47,10.0,NNW,9.2,-,N/A,,Clear,330,2014-01-12 19:15:00
1:35 PM,50.0,32.0,50,29.47,10.0,NNW,8.1,-,N/A,,Clear,330,2014-01-12 19:35:00
1:55 PM,50.0,32.0,50,29.49,10.0,NNW,6.9,-,N/A,,Clear,330,2014-01-12 19:55:00
2:15 PM,50.0,32.0,50,29.49,10.0,NNW,8.1,-,N/A,,Clear,330,2014-01-12 20:15:00
2:35 PM,50.0,32.0,50,29.51,10.0,NNW,11.5,-,N/A,,Clear,330,2014-01-12 20:35:00
2:55 PM,50.0,32.0,50,29.52,10.0,NW,12.7,-,N/A,,Clear,320,2014-01-12 20:55:00
3:15 PM,50.0,32.0,50,29.53,10.0,NNW,9.2,-,N/A,,Clear,330,2014-01-12 21:15:00
3:35 PM,50.0,32.0,50,29.54,10.0,NNW,6.9,-,N/A,,Clear,330,2014-01-12 21:35:00
3:55 PM,48.2,32.0,54,29.55,10.0,NW,4.6,-,N/A,,Partly Cloudy,320,2014-01-12 21:55:00
4:15 PM,46.4,32.0,57,29.56,10.0,NW,8.1,-,N/A,,Mostly Cloudy,310,2014-01-12 22:15:00
4:35 PM,46.4,32.0,57,29.58,10.0,NW,9.2,-,N/A,,Overcast,320,2014-01-12 22:35:00
4:55 PM,46.4,32.0,57,29.59,10.0,NW,9.2,-,N/A,,Overcast,320,2014-01-12 22:55:00
5:15 PM,44.6,32.0,61,29.60,10.0,NW,10.4,-,N/A,,Scattered Clouds,310,2014-01-12 23:15:00
5:35 PM,42.8,32.0,66,29.61,10.0,NW,8.1,-,N/A,,Mostly Cloudy,320,2014-01-12 23:35:00
5:55 PM,42.8,32.0,66,29.62,10.0,NW,9.2,-,N/A,,Overcast,310,2014-01-12 23:55:00
6:15 PM,42.8,32.0,66,29.62,10.0,NW,11.5,-,N/A,,Overcast,310,2014-01-13 00:15:00
6:35 PM,44.6,32.0,61,29.65,10.0,WNW,10.4,-,N/A,,Overcast,300,2014-01-13 00:35:00
6:55 PM,44.6,32.0,61,29.65,10.0,NW,17.3,-,N/A,,Mostly Cloudy,310,2014-01-13 00:55:00
7:15 PM,44.6,35.6,71,29.67,10.0,NNW,9.2,-,N/A,Rain,Light Rain,330,2014-01-13 01:15:00
7:35 PM,44.6,35.6,71,29.66,10.0,North,9.2,-,N/A,Rain,Light Rain,360,2014-01-13 01:35:00
7:55 PM,42.8,35.6,76,29.65,10.0,North,4.6,-,N/A,,Overcast,10,2014-01-13 01:55:00
8:15 PM,42.8,35.6,76,29.65,10.0,Calm,Calm,-,N/A,,Overcast,0,2014-01-13 02:15:00
8:55 PM,39.2,35.6,87,29.68,10.0,WSW,8.1,-,N/A,,Overcast,240,2014-01-13 02:55:00
9:15 PM,39.2,35.6,87,29.69,10.0,West,8.1,-,N/A,,Overcast,260,2014-01-13 03:15:00
9:35 PM,37.4,33.8,87,29.70,10.0,West,8.1,-,N/A,,Overcast,280,2014-01-13 03:35:00
9:55 PM,37.4,33.8,87,29.69,10.0,West,6.9,-,N/A,,Overcast,270,2014-01-13 03:55:00
10:15 PM,39.2,32.0,75,29.69,10.0,WNW,9.2,-,N/A,,Overcast,300,2014-01-13 04:15:00
10:35 PM,37.4,32.0,81,29.70,10.0,WNW,10.4,-,N/A,,Mostly Cloudy,290,2014-01-13 04:35:00
10:55 PM,39.2,32.0,75,29.70,10.0,NW,9.2,-,N/A,,Scattered Clouds,310,2014-01-13 04:55:00
11:15 PM,37.4,32.0,81,29.70,10.0,NW,9.2,-,N/A,,Scattered Clouds,310,2014-01-13 05:15:00
11:35 PM,37.4,30.2,75,29.70,10.0,NW,10.4,-,N/A,,Partly Cloudy,310,2014-01-13 05:35:00
11:55 PM,37.4,28.4,70,29.70,10.0,NW,10.4,-,N/A,,Partly Cloudy,310,2014-01-13 05:55:00